Location: Willingham
(52.3167°N, 0.0667°E)
Time: 18:58:59
(UTC+00:00)

Cosmos 1934 Rocket - Pass Details

Date: 19 May 2025
Orbit: 938 x 997 km, 83.0° (Epoch: 23 June)

Event Time Altitude Azimuth Distance (km) Brightness Sun altitude
Rises 23:07:36 0° 348° (NNW) 3,668 8.8 -16.9°
Reaches altitude 10° 23:10:07 10° 345° (NNW) 2,725 7.7 -17.0°
Maximum altitude 23:16:16 65° 266° (W) 1,076 4.2 -17.2°
Enters shadow 23:20:04 25° 191° (SSW) 1,884 5.0 -17.3°
